Location: Observatory
(52.1446°N, 0.4624°W)
Time: 02:06:25
(UTC+01:00)

ISS - Pass Details

Date: 22 May 2018
Orbit: 402 x 406 km, 51.6° (Epoch: 21 June)

Event Time Altitude Azimuth Distance (km) Brightness Sun altitude
Rises 01:58:14 0° 278° (W) 2,321 0.0 -16.3°
Reaches altitude 10° 02:00:19 10° 276° (W) 1,460 -1.1 -16.3°
Maximum altitude 02:03:34 68° 193° (SSW) 439 -4.0 -16.1°
Drops below altitude 10° 02:06:49 10° 110° (ESE) 1,457 -1.1 -16.0°
Sets 02:08:53 0° 108° (ESE) 2,315 0.0 -15.9°
